Location: Lafig�re
(44.4503°N, 4.0357°E)
Time: 12:04:12
(UTC+00:00)

Vanguard 2 - Pass Details

Date: 23 January 2021
Orbit: 552 x 2938 km, 32.9° (Epoch: 05 March)

Event Time Altitude Azimuth Distance (km) Brightness Sun altitude
Rises 18:30:33 0° 246° (WSW) 2,827 11.9 -19.4°
Reaches altitude 10° 18:32:55 10° 231° (SW) 2,057 10.6 -19.8°
Maximum altitude 18:36:38 24° 177° (S) 1,593 9.2 -20.5°
Enters shadow 18:39:25 17° 140° (SE) 2,128 9.5 -21.0°
